Satellite: DTUSAT-2 Catalog number: 40030 Epoch time: 15057.71492768 Element set: 999 Inclination: 097.9614 deg RA of node: 317.6166 deg Eccentricity: 0.0012496 Arg of perigee: 173.1083 deg Mean anomaly: 187.0306 deg Mean motion: 14.86215498 rev/day Decay rate: 2.542e-05 rev/day^2 Epoch rev: 3737 Checksum: 324
Satellite: ANTELSAT Catalog number: 40034 Epoch time: 15057.68915232 Element set: 999 Inclination: 097.9585 deg RA of node: 312.1148 deg Eccentricity: 0.0061454 Arg of perigee: 112.7721 deg Mean anomaly: 247.9998 deg Mean motion: 14.72286099 rev/day Decay rate: 1.771e-05 rev/day^2 Epoch rev: 3703 Checksum: 329
/EX SB KEPS @ AMSAT $ORB15057.W Orbital Elements 15057.WEATHER
HR AMSAT ORBITAL ELEMENTS FOR WEATHER SATELLITES FROM WA5QGD FORT WORTH,TX February 26, 2015 BID: ORB15057.W TO ALL RADIO AMATEURS BT
Satellite: MET-2/21 Catalog number: 22782 Epoch time: 15056.30618519 Element set: 999 Inclination: 082.5526 deg RA of node: 332.4554 deg Eccentricity: 0.0020974 Arg of perigee: 274.9920 deg Mean anomaly: 217.5318 deg Mean motion: 13.83763680 rev/day Decay rate: 4.3e-07 rev/day^2 Epoch rev: 8512 Checksum: 318
Satellite: OKEAN-4 Catalog number: 23317 Epoch time: 15057.50645295 Element set: 999 Inclination: 082.5402 deg RA of node: 189.3572 deg Eccentricity: 0.0019301 Arg of perigee: 339.7700 deg Mean anomaly: 126.6004 deg Mean motion: 14.86360355 rev/day Decay rate: 1.453e-05 rev/day^2 Epoch rev: 10087 Checksum: 298
Satellite: NOAA-14 Catalog number: 23455 Epoch time: 15057.54200237 Element set: 999 Inclination: 098.7576 deg RA of node: 141.2480 deg Eccentricity: 0.0009886 Arg of perigee: 041.9036 deg Mean anomaly: 082.8180 deg Mean motion: 14.14024907 rev/day Decay rate: -1.6e-07 rev/day^2 Epoch rev: 3989 Checksum: 315
Satellite: NOAA-15 Catalog number: 25338 Epoch time: 15057.56527396 Element set: 999 Inclination: 098.7692 deg RA of node: 056.1532 deg Eccentricity: 0.0011678 Arg of perigee: 127.2911 deg Mean anomaly: 339.8683 deg Mean motion: 14.25571043 rev/day Decay rate: 1.76e-06 rev/day^2 Epoch rev: 87308 Checksum: 346
Satellite: RESURS Catalog number: 25394 Epoch time: 15056.53769096 Element set: 999 Inclination: 098.4516 deg RA of node: 015.7320 deg Eccentricity: 0.0000837 Arg of perigee: 180.9884 deg Mean anomaly: 303.5110 deg Mean motion: 14.24443658 rev/day Decay rate: 3.3e-07 rev/day^2 Epoch rev: 86438 Checksum: 318
Satellite: FENGYUN1 Catalog number: 25730 Epoch time: 15056.53629080 Element set: 999 Inclination: 098.9347 deg RA of node: 021.5143 deg Eccentricity: 0.0020596 Arg of perigee: 106.3610 deg Mean anomaly: 010.5046 deg Mean motion: 14.13016579 rev/day Decay rate: 8.74e-06 rev/day^2 Epoch rev: 81328 Checksum: 293
Satellite: OKEAN-0 Catalog number: 25860 Epoch time: 15057.49174788 Element set: 999 Inclination: 098.0808 deg RA of node: 025.4609 deg Eccentricity: 0.0001126 Arg of perigee: 084.5028 deg Mean anomaly: 061.1600 deg Mean motion: 14.75836096 rev/day Decay rate: 8.12e-06 rev/day^2 Epoch rev: 83965 Checksum: 325
Satellite: NOAA-16 Catalog number: 26536 Epoch time: 15057.28301624 Element set: 999 Inclination: 098.9550 deg RA of node: 123.3043 deg Eccentricity: 0.0010825 Arg of perigee: 181.1341 deg Mean anomaly: 178.9808 deg Mean motion: 14.13077442 rev/day Decay rate: 9.0e-07 rev/day^2 Epoch rev: 74399 Checksum: 313
Satellite: NOAA-17 Catalog number: 27453 Epoch time: 15057.54980431 Element set: 999 Inclination: 098.3322 deg RA of node: 049.0746 deg Eccentricity: 0.0012618 Arg of perigee: 143.8096 deg Mean anomaly: 216.3941 deg Mean motion: 14.24855960 rev/day Decay rate: 8.0e-07 rev/day^2 Epoch rev: 65890 Checksum: 331
Satellite: NOAA-18 Catalog number: 28654 Epoch time: 15057.55510662 Element set: 999 Inclination: 099.1771 deg RA of node: 047.5446 deg Eccentricity: 0.0013339 Arg of perigee: 270.2977 deg Mean anomaly: 196.4831 deg Mean motion: 14.12155503 rev/day Decay rate: 8.0e-07 rev/day^2 Epoch rev: 50346 Checksum: 322
Satellite: NOAA-19 Catalog number: 33591 Epoch time: 15057.50160947 Element set: 999 Inclination: 098.9781 deg RA of node: 007.1924 deg Eccentricity: 0.0015006 Arg of perigee: 120.4345 deg Mean anomaly: 014.4873 deg Mean motion: 14.11879924 rev/day Decay rate: 2.49e-06 rev/day^2 Epoch rev: 31187 Checksum: 322
/EX SB KEPS @ AMSAT $ORB15057.M Orbital Elements 15057.MISC
HR AMSAT ORBITAL ELEMENTS FOR MANNED AND MISCELLANEOUS SATELLITES FROM WA5QGD FORT WORTH,TX February 26, 2015 BID: ORB15057.M TO ALL RADIO AMATEURS BT
Satellite: HUBBLE Catalog number: 20580 Epoch time: 15057.66983247 Element set: 999 Inclination: 028.4699 deg RA of node: 162.6306 deg Eccentricity: 0.0003279 Arg of perigee: 123.5719 deg Mean anomaly: 018.4513 deg Mean motion: 15.06888619 rev/day Decay rate: 2.340e-05 rev/day^2 Epoch rev: 16312 Checksum: 320
Satellite: ISS Catalog number: 25544 Epoch time: 15057.84246203 Element set: 999 Inclination: 051.6473 deg RA of node: 275.1525 deg Eccentricity: 0.0007649 Arg of perigee: 055.1569 deg Mean anomaly: 037.9350 deg Mean motion: 15.54878014 rev/day Decay rate: 1.27627e-03 rev/day^2 Epoch rev: 93086 Checksum: 331
Satellite: CO-58 Catalog number: 28895 Epoch time: 15057.02812911 Element set: 999 Inclination: 097.8226 deg RA of node: 250.6120 deg Eccentricity: 0.0015927 Arg of perigee: 289.2909 deg Mean anomaly: 070.6571 deg Mean motion: 14.62529482 rev/day Decay rate: 9.71e-06 rev/day^2 Epoch rev: 49734 Checksum: 350
Satellite: FALCON Catalog number: 30776 Epoch time: 15056.81684715 Element set: 999 Inclination: 035.4282 deg RA of node: 338.0031 deg Eccentricity: 0.0002880 Arg of perigee: 330.1556 deg Mean anomaly: 069.3581 deg Mean motion: 15.21767301 rev/day Decay rate: 1.0737e-04 rev/day^2 Epoch rev: 43931 Checksum: 300
Satellite: MAST Catalog number: 31126 Epoch time: 15057.50758948 Element set: 999 Inclination: 097.9481 deg RA of node: 030.6647 deg Eccentricity: 0.0089842 Arg of perigee: 281.1337 deg Mean anomaly: 229.0097 deg Mean motion: 14.55852674 rev/day Decay rate: 7.91e-06 rev/day^2 Epoch rev: 41738 Checksum: 349
Satellite: CAPE1 Catalog number: 31130 Epoch time: 15057.42306703 Element set: 999 Inclination: 097.9697 deg RA of node: 027.5972 deg Eccentricity: 0.0096359 Arg of perigee: 301.0369 deg Mean anomaly: 058.1395 deg Mean motion: 14.55219632 rev/day Decay rate: 1.226e-05 rev/day^2 Epoch rev: 41677 Checksum: 325
Satellite: COMPASS Catalog number: 32787 Epoch time: 15057.09141922 Element set: 999 Inclination: 097.6672 deg RA of node: 108.1490 deg Eccentricity: 0.0014604 Arg of perigee: 065.9114 deg Mean anomaly: 294.3630 deg Mean motion: 14.89903825 rev/day Decay rate: 3.356e-05 rev/day^2 Epoch rev: 36996 Checksum: 335
Satellite: AAUSAT2 Catalog number: 32788 Epoch time: 15057.09273922 Element set: 999 Inclination: 097.6681 deg RA of node: 109.4822 deg Eccentricity: 0.0014014 Arg of perigee: 063.8659 deg Mean anomaly: 296.3999 deg Mean motion: 14.90849336 rev/day Decay rate: 4.068e-05 rev/day^2 Epoch rev: 37004 Checksum: 353
Satellite: DO-64 Catalog number: 32789 Epoch time: 15057.17481301 Element set: 999 Inclination: 097.6864 deg RA of node: 118.8921 deg Eccentricity: 0.0011084 Arg of perigee: 044.3343 deg Mean anomaly: 017.2439 deg Mean motion: 14.97873600 rev/day Decay rate: 7.946e-05 rev/day^2 Epoch rev: 37045 Checksum: 339
Satellite: CO-66 Catalog number: 32791 Epoch time: 15057.10479594 Element set: 999 Inclination: 097.6662 deg RA of node: 106.3281 deg Eccentricity: 0.0015281 Arg of perigee: 070.5525 deg Mean anomaly: 289.7342 deg Mean motion: 14.88140169 rev/day Decay rate: 2.236e-05 rev/day^2 Epoch rev: 36979 Checksum: 349
Satellite: RS-30 Catalog number: 32953 Epoch time: 15057.56758822 Element set: 999 Inclination: 082.5015 deg RA of node: 043.0273 deg Eccentricity: 0.0018277 Arg of perigee: 324.9107 deg Mean anomaly: 035.0763 deg Mean motion: 12.43057077 rev/day Decay rate: 1.0e-07 rev/day^2 Epoch rev: 30686 Checksum: 299
Satellite: METEOR-M Catalog number: 35865 Epoch time: 15057.73901284 Element set: 999 Inclination: 098.5152 deg RA of node: 101.9628 deg Eccentricity: 0.0003236 Arg of perigee: 080.1745 deg Mean anomaly: 279.9798 deg Mean motion: 14.21994516 rev/day Decay rate: 1.14e-06 rev/day^2 Epoch rev: 28251 Checksum: 329
Satellite: RS-38 Catalog number: 35869 Epoch time: 15057.72295382 Element set: 999 Inclination: 098.5065 deg RA of node: 101.6302 deg Eccentricity: 0.0005449 Arg of perigee: 077.4710 deg Mean anomaly: 282.7078 deg Mean motion: 14.22273907 rev/day Decay rate: 8.2e-07 rev/day^2 Epoch rev: 28255 Checksum: 333
Satellite: JUGNU Catalog number: 37839 Epoch time: 15057.52181601 Element set: 999 Inclination: 019.9612 deg RA of node: 153.3610 deg Eccentricity: 0.0018831 Arg of perigee: 267.6183 deg Mean anomaly: 196.0730 deg Mean motion: 14.12426515 rev/day Decay rate: 4.57e-06 rev/day^2 Epoch rev: 17455 Checksum: 304
Satellite: SRMSAT Catalog number: 37841 Epoch time: 15057.59137544 Element set: 999 Inclination: 019.9716 deg RA of node: 177.3913 deg Eccentricity: 0.0011593 Arg of perigee: 197.8516 deg Mean anomaly: 266.7021 deg Mean motion: 14.10445825 rev/day Decay rate: 4.19e-06 rev/day^2 Epoch rev: 17431 Checksum: 323
Satellite: RAX-2 Catalog number: 37853 Epoch time: 15057.46575297 Element set: 999 Inclination: 101.7097 deg RA of node: 214.2665 deg Eccentricity: 0.0201652 Arg of perigee: 038.8247 deg Mean anomaly: 010.7533 deg Mean motion: 14.94301181 rev/day Decay rate: 5.228e-05 rev/day^2 Epoch rev: 18056 Checksum: 314
Satellite: AUBIESAT Catalog number: 37854 Epoch time: 15057.38964769 Element set: 999 Inclination: 101.7155 deg RA of node: 217.0623 deg Eccentricity: 0.0197514 Arg of perigee: 034.6274 deg Mean anomaly: 021.1316 deg Mean motion: 14.96199974 rev/day Decay rate: 6.833e-05 rev/day^2 Epoch rev: 18064 Checksum: 338
